Total_Precipitation_Accumulation
0.01 0.04 0.10 0.07 0.08 0.08 0.09 0.10 0.09 0.09 0.10 0.12 0.12 0.12 0.15 0.15 0.12 0.09 0.10 0.13 0.16 0.19 0.24 0.27 0.30 0.34 0.32 0.30 0.24 0.09 0.02 0.01 0.01 0.01 0.01 0.02 0.04 0.05 0.04 0.04 0.05 0.06 0.08
0.00 0.03 0.08 0.07 0.08 0.09 0.09 0.10 0.07 0.06 0.08 0.10 0.11 0.14 0.17 0.14 0.11 0.09 0.11 0.13 0.16 0.19 0.23 0.22 0.18 0.16 0.15 0.14 0.10 0.04 0.01 0.00 0.00 0.00 0.00 0.01 0.02 0.04 0.04 0.05 0.06 0.07 0.10
0.00 0.03 0.06 0.07 0.08 0.09 0.08 0.06 0.05 0.05 0.06 0.09 0.11 0.14 0.16 0.12 0.10 0.11 0.13 0.13 0.15 0.16 0.16 0.13 0.09 0.05 0.03 0.02 0.01 0.01 0.00 0.00 0.00 0.00 0.01 0.01 0.02 0.04 0.04 0.05 0.06 0.07 0.08
0.01 0.03 0.05 0.07 0.08 0.08 0.06 0.05 0.04 0.04 0.06 0.08 0.10 0.13 0.12 0.10 0.10 0.10 0.09 0.09 0.08 0.08 0.06 0.04 0.03 0.01 0.00 0.00 0.00 0.00 0.00 0.00 0.00 0.00 0.00 0.01 0.02 0.04 0.05 0.06 0.07 0.07 0.06
0.02 0.03 0.06 0.07 0.08 0.07 0.05 0.04 0.04 0.05 0.06 0.07 0.08 0.09 0.09 0.09 0.10 0.09 0.06 0.04 0.03 0.02 0.01 0.01 0.00 0.00 0.00 0.00 0.00 0.00 0.00 0.00 0.00 0.00 0.01 0.01 0.03 0.06 0.06 0.07 0.08 0.09 0.09
0.03 0.04 0.08 0.07 0.08 0.06 0.05 0.04 0.04 0.05 0.06 0.07 0.07 0.06 0.07 0.09 0.11 0.13 0.06 0.01 0.01 0.00 0.00 0.00 0.00 0.00 0.00 0.00 0.00 0.00 0.00 0.00 0.00 0.00 0.01 0.02 0.05 0.11 0.11 0.11 0.12 0.13 0.15
0.05 0.06 0.10 0.09 0.08 0.06 0.05 0.04 0.04 0.05 0.06 0.07 0.06 0.06 0.07 0.07 0.08 0.09 0.06 0.01 0.00 0.00 0.00 0.00 0.00 0.00 0.00 0.00 0.00 0.00 0.00 0.00 0.00 0.00 0.01 0.02 0.06 0.12 0.12 0.11 0.12 0.14 0.16
0.08 0.10 0.13 0.12 0.10 0.07 0.05 0.05 0.05 0.05 0.06 0.07 0.06 0.07 0.06 0.05 0.03 0.05 0.05 0.02 0.00 0.00 0.00 0.01 0.01 0.01 0.00 0.00 0.00 0.00 0.00 0.00 0.00 0.00 0.01 0.01 0.04 0.08 0.10 0.09 0.09 0.09 0.10
0.17 0.15 0.15 0.13 0.11 0.08 0.06 0.05 0.04 0.05 0.06 0.06 0.06 0.05 0.04 0.03 0.02 0.02 0.03 0.02 0.01 0.00 0.01 0.01 0.01 0.01 0.01 0.01 0.01 0.00 0.00 0.00 0.00 0.00 0.00 0.02 0.05 0.09 0.08 0.08 0.08 0.07 0.07
0.32 0.22 0.15 0.12 0.10 0.08 0.07 0.04 0.03 0.04 0.05 0.05 0.04 0.03 0.02 0.01 0.01 0.01 0.01 0.01 0.00 0.01 0.01 0.01 0.02 0.02 0.01 0.01 0.00 0.00 0.00 0.00 0.00 0.00 0.00 0.02 0.05 0.08 0.07 0.07 0.07 0.07 0.07
0.49 0.35 0.21 0.13 0.09 0.07 0.06 0.04 0.03 0.03 0.03 0.03 0.02 0.01 0.01 0.01 0.01 0.01 0.00 0.00 0.00 0.01 0.01 0.02 0.02 0.01 0.01 0.00 0.00 0.00 0.00 0.00 0.00 0.00 0.00 0.02 0.04 0.05 0.05 0.05 0.06 0.07 0.07
0.54 0.40 0.28 0.16 0.09 0.07 0.06 0.05 0.04 0.03 0.03 0.02 0.01 0.01 0.00 0.01 0.00 0.00 0.00 0.00 0.00 0.01 0.01 0.01 0.01 0.01 0.00 0.00 0.00 0.00 0.00 0.00 0.00 0.00 0.00 0.01 0.02 0.03 0.03 0.04 0.05 0.05 0.06
0.61 0.45 0.31 0.21 0.11 0.06 0.05 0.04 0.04 0.03 0.02 0.01 0.01 0.00 0.00 0.00 0.00 0.00 0.00 0.00 0.00 0.00 0.00 0.00 0.00 0.00 0.00 0.00 0.00 0.00 0.00 0.00 0.00 0.00 0.00 0.00 0.01 0.01 0.02 0.03 0.04 0.04 0.04
0.72 0.57 0.43 0.28 0.15 0.08 0.04 0.03 0.03 0.02 0.01 0.01 0.00 0.00 0.00 0.00 0.00 0.00 0.00 0.00 0.00 0.00 0.00 0.00 0.00 0.00 0.00 0.00 0.00 0.00 0.00 0.00 0.00 0.00 0.00 0.00 0.00 0.01 0.02 0.03 0.03 0.04 0.04
0.70 0.63 0.48 0.34 0.21 0.12 0.06 0.04 0.02 0.02 0.01 0.01 0.01 0.00 0.00 0.00 0.00 0.00 0.00 0.00 0.01 0.00 0.00 0.00 0.00 0.00 0.00 0.00 0.00 0.00 0.00 0.00 0.00 0.00 0.00 0.00 0.00 0.00 0.01 0.02 0.03 0.04 0.07
0.69 0.62 0.52 0.39 0.28 0.17 0.10 0.06 0.04 0.03 0.02 0.01 0.01 0.01 0.00 0.00 0.00 0.00 0.00 0.00 0.00 0.00 0.00 0.00 0.00 0.00 0.00 0.00 0.00 0.00 0.00 0.00 0.00 0.00 0.00 0.00 0.00 0.00 0.00 0.01 0.03 0.07 0.11
0.78 0.71 0.56 0.45 0.37 0.23 0.17 0.15 0.11 0.08 0.05 0.02 0.01 0.01 0.01 0.01 0.00 0.00 0.00 0.00 0.00 0.00 0.00 0.00 0.00 0.00 0.00 0.00 0.00 0.00 0.00 0.00 0.00 0.00 0.00 0.00 0.00 0.00 0.00 0.01 0.03 0.08 0.13
0.87 0.81 0.66 0.50 0.42 0.31 0.25 0.25 0.21 0.15 0.11 0.05 0.03 0.02 0.01 0.01 0.01 0.01 0.00 0.00 0.01 0.00 0.00 0.00 0.00 0.00 0.01 0.00 0.00 0.00 0.01 0.01 0.00 0.00 0.00 0.00 0.00 0.00 0.00 0.01 0.03 0.06 0.10
0.92 0.90 0.76 0.61 0.52 0.50 0.48 0.43 0.37 0.30 0.21 0.15 0.12 0.06 0.04 0.04 0.04 0.02 0.01 0.01 0.02 0.01 0.01 0.01 0.01 0.01 0.02 0.02 0.02 0.02 0.02 0.01 0.01 0.01 0.00 0.00 0.00 0.01 0.01 0.01 0.02 0.03 0.05
1.07 1.06 0.94 0.79 0.71 0.74 0.78 0.71 0.56 0.43 0.30 0.24 0.19 0.16 0.14 0.13 0.12 0.08 0.04 0.05 0.05 0.04 0.04 0.04 0.04 0.04 0.05 0.06 0.05 0.02 0.01 0.01 0.01 0.01 0.01 0.01 0.01 0.02 0.03 0.03 0.03 0.02 0.02
1.17 1.11 1.01 0.91 0.84 0.83 0.81 0.72 0.62 0.51 0.46 0.39 0.34 0.31 0.30 0.27 0.28 0.22 0.14 0.13 0.13 0.12 0.11 0.11 0.11 0.10 0.08 0.10 0.08 0.04 0.02 0.01 0.01 0.01 0.01 0.01 0.01 0.03 0.03 0.04 0.03 0.02 0.02
1.00 1.09 1.06 1.00 0.94 0.86 0.78 0.82 0.83 0.85 0.78 0.68 0.60 0.49 0.43 0.39 0.40 0.35 0.30 0.29 0.28 0.24 0.20 0.19 0.18 0.14 0.12 0.15 0.15 0.13 0.05 0.02 0.01 0.01 0.01 0.01 0.02 0.03 0.03 0.04 0.03 0.03 0.02
0.70 0.91 1.02 1.04 1.03 1.02 1.04 1.16 1.13 1.00 0.82 0.67 0.53 0.49 0.51 0.53 0.53 0.49 0.48 0.45 0.43 0.40 0.32 0.30 0.28 0.24 0.22 0.21 0.21 0.23 0.15 0.06 0.03 0.02 0.02 0.02 0.03 0.03 0.03 0.04 0.04 0.05 0.04
0.45 0.63 0.79 0.95 1.04 1.09 1.23 1.22 1.15 0.97 0.78 0.67 0.70 0.76 0.74 0.71 0.67 0.63 0.59 0.56 0.54 0.48 0.40 0.41 0.42 0.36 0.32 0.26 0.25 0.24 0.22 0.16 0.14 0.08 0.04 0.04 0.05 0.04 0.05 0.05 0.05 0.05 0.05
0.30 0.42 0.51 0.65 0.87 0.96 0.96 0.99 1.07 1.02 0.91 0.89 0.85 0.80 0.73 0.67 0.67 0.65 0.62 0.59 0.56 0.53 0.48 0.47 0.45 0.44 0.43 0.38 0.32 0.29 0.27 0.21 0.16 0.17 0.11 0.07 0.07 0.07 0.07 0.07 0.06 0.06 0.06
0.17 0.29 0.40 0.46 0.59 0.69 0.74 0.79 0.83 0.84 0.87 0.85 0.77 0.71 0.66 0.60 0.57 0.57 0.57 0.56 0.55 0.53 0.50 0.49 0.50 0.51 0.48 0.42 0.34 0.29 0.32 0.29 0.23 0.23 0.22 0.14 0.13 0.13 0.11 0.11 0.10 0.10 0.11